History for Ft Lauderdale, FL

Wednesday, January 11, 2017 — View Current Conditions

Jump to Data:

Date:
Airport Code:
Recently Viewed Airport Codes: KFLL
Daily Summary
  Actual Average Record
Temperature
Mean Temperature 71°F 69°F  
Max Temperature 77°F 76°F 86°F (1925)
Min Temperature 64°F 61°F 33°F (1970)
Degree Days
Heating Degree Days 0 2  
Month to date heating degree days 11 22  
Since 1 July heating degree days 13 54  
Cooling Degree Days 6 5  
Month to date cooling degree days 76 64  
Year to date cooling degree days 76 64  
Growing Degree Days 20 (Base 50)    
Moisture
Dew Point 61°F    
Average Humidity 77    
Maximum Humidity 93    
Minimum Humidity 60    
Precipitation
Precipitation 0.26 in 0.08 in 0.81 in (1994)
Month to date precipitation 0.60 0.91  
Year to date precipitation 0.60 0.91  
Snow
Snow 0.00 in in in ()
Month to date snowfall 0.0  
Since 1 July snowfall 0.0  
Snow Depth 0.00 in    
Sea Level Pressure
Sea Level Pressure 30.28 in    
Wind
Wind Speed 14 mph (East)    
Max Wind Speed 26 mph    
Max Gust Speed 32 mph    
Visibility 9 miles    
Events Rain    
T = Trace of Precipitation, MM = Missing Value Source: NWS Daily Summary

Show full METARS

(help) - Comma Delimited File

Hourly Observations

Time(EST) Temperature Dew Point Humidity Sea Level Pressure Visibility Wind Direction Wind Speed Gust Speed Precipitation Events Conditions
12:53 AM 66.9°F 60.1°F 79% 30.30 in 10.0 miles East 20.7 mph 29.9 mph 0.01 in Rain Light Rain
1:53 AM 66.0°F 61.0°F 84% 30.31 in 10.0 miles East 15.0 mph - 0.01 in   Overcast
2:53 AM 64.9°F 62.1°F 90% 30.30 in 7.0 miles NE 6.9 mph - 0.02 in Rain Light Rain
3:14 AM 64.0°F 63.0°F 96% 30.30 in 3.0 miles ESE 13.8 mph - 0.15 in Rain Heavy Rain
3:53 AM 64.9°F 63.0°F 93% 30.29 in 9.0 miles SE 13.8 mph - 0.19 in Rain Light Rain
3:55 AM 64.9°F 63.0°F 93% 30.29 in 9.0 miles SE 12.7 mph - 0.00 in Rain Light Rain
4:53 AM 66.9°F 60.1°F 79% 30.27 in 10.0 miles ENE 13.8 mph 23.0 mph 0.00 in   Overcast
5:05 AM 66.9°F 61.0°F 81% 30.28 in 9.0 miles ESE 13.8 mph 23.0 mph 0.01 in Rain Rain
5:53 AM 66.0°F 61.0°F 84% 30.29 in 9.0 miles SE 9.2 mph - 0.02 in Rain Light Rain
6:53 AM 69.1°F 59.0°F 70% 30.29 in 9.0 miles ENE 11.5 mph 18.4 mph 0.01 in   Overcast
7:53 AM 70.0°F 57.9°F 65% 30.31 in 10.0 miles East 13.8 mph 21.9 mph N/A   Mostly Cloudy
8:53 AM 71.1°F 60.1°F 68% 30.32 in 10.0 miles East 17.3 mph - N/A   Mostly Cloudy
9:53 AM 73.0°F 60.1°F 64% 30.33 in 10.0 miles East 19.6 mph 25.3 mph N/A   Mostly Cloudy
10:53 AM 75.0°F 60.1°F 60% 30.32 in 10.0 miles East 12.7 mph - 0.00 in   Mostly Cloudy
11:53 AM 75.9°F 62.1°F 62% 30.30 in 10.0 miles ENE 13.8 mph 26.5 mph N/A   Mostly Cloudy
12:53 PM 75.0°F 61.0°F 62% 30.28 in 10.0 miles ENE 15.0 mph 24.2 mph N/A   Mostly Cloudy
1:53 PM 75.0°F 62.1°F 64% 30.26 in 10.0 miles ENE 13.8 mph 20.7 mph N/A   Mostly Cloudy
2:53 PM 73.9°F 61.0°F 64% 30.25 in 10.0 miles ENE 12.7 mph 21.9 mph N/A   Mostly Cloudy
3:53 PM 75.0°F 60.1°F 60% 30.25 in 10.0 miles East 16.1 mph 25.3 mph N/A   Overcast
4:53 PM 73.9°F 60.1°F 62% 30.25 in 10.0 miles East 15.0 mph 23.0 mph N/A   Overcast
5:53 PM 72.0°F 62.1°F 71% 30.25 in 10.0 miles East 15.0 mph - N/A   Overcast
6:53 PM 72.0°F 62.1°F 71% 30.25 in 10.0 miles ENE 10.4 mph 24.2 mph 0.00 in   Overcast
7:53 PM 73.0°F 62.1°F 68% 30.26 in 10.0 miles ENE 16.1 mph 25.3 mph 0.00 in   Overcast
8:53 PM 73.0°F 62.1°F 68% 30.27 in 10.0 miles ENE 13.8 mph 23.0 mph N/A   Overcast
9:53 PM 73.0°F 62.1°F 68% 30.27 in 10.0 miles ENE 16.1 mph 24.2 mph N/A   Mostly Cloudy
10:53 PM 72.0°F 63.0°F 73% 30.27 in 10.0 miles ENE 13.8 mph - N/A   Mostly Cloudy
11:53 PM 73.0°F 57.9°F 59% 30.26 in 10.0 miles East 18.4 mph - N/A   Overcast